Weather History for Berlin, NH

Change the Weather History Date:

Friday, April 5, 2013

  Actual Average Record
Temperature  
Mean Temperature 37 °F -  
Max Temperature 48 °F 41 °F 55 °F (1997)
Min Temperature 28 °F 20 °F 7 °F (2001)
Degree Days  
Heating Degree Days 28    
Moisture  
Dew Point 23 °F    
Average Humidity 63    
Maximum Humidity 87    
Minimum Humidity 27    
Precipitation  
Precipitation 0.01 in - - ()
Sea Level Pressure  
Sea Level Pressure 29.80 in    
Wind  
Wind Speed 6 mph (NW)    
Max Wind Speed 15 mph    
Max Gust Speed 25 mph    
Visibility 8 miles    
Events Fog , Snow    
Averages and records for this station are not official NWS values.
T = Trace of Precipitation, MM = Missing Value Source: NWS Daily Summary

Daily Weather History Graph

Daily Weather History Graph

Search for Another Location

Airport:

Trip Planner

Search our weather history database for the weather conditions in past years. The results will help you decide how hot, cold, wet, or windy it might be!

Date:

Astronomy

Apr. 05, 2013 Rise Set
Actual Time 6:17 AM EDT 7:17 PM EDT
Civil Twilight 5:48 AM EDT 7:47 PM EDT
Nautical Twilight 5:12 AM EDT 8:22 PM EDT
Astronomical Twilight 4:35 AM EDT 9:00 PM EDT
Moon 3:34 AM EDT (4/5) 2:27 PM EDT (4/5)
Length of Visible Light 13h 58m
Length of Day
12h 59m
Waning Crescent, 24% of the Moon is Illuminated
Apr 5
Waning Crescent
Apr 10
New
Apr 18
First Quarter
Apr 25
Full
May 2
Last Quarter

Hourly Weather History & Observations

Time (EDT) Temp. Windchill Dew Point Humidity Pressure Visibility Wind Dir Wind Speed Gust Speed Precip Events Conditions
12:52 AM 30.9 °F 27.5 °F 19.9 °F 64% 29.91 in 10.0 mi North 3.5 mph - N/A   Clear
1:52 AM 30.0 °F 26.5 °F 21.0 °F 69% 29.88 in 10.0 mi Variable 3.5 mph - N/A   Clear
2:52 AM 28.9 °F 25.2 °F 21.9 °F 75% 29.86 in 10.0 mi Variable 3.5 mph - N/A   Clear
3:52 AM 30.0 °F 25.2 °F 21.9 °F 72% 29.83 in 10.0 mi NNW 4.6 mph - N/A   Clear
4:52 AM 32.0 °F 27.5 °F 21.0 °F 64% 29.84 in 10.0 mi Variable 4.6 mph - N/A   Clear
5:52 AM 36.0 °F - 19.0 °F 50% 29.82 in 10.0 mi Calm Calm - N/A   Clear
6:52 AM 32.0 °F - 21.0 °F 64% 29.82 in 10.0 mi Calm Calm - N/A   Clear
7:52 AM 35.1 °F - 23.0 °F 61% 29.82 in 10.0 mi Calm Calm - N/A   Clear
8:52 AM 43.0 °F 37.7 °F 18.0 °F 37% 29.79 in 10.0 mi SSW 9.2 mph - N/A   Partly Cloudy
9:52 AM 46.0 °F - 17.1 °F 31% 29.76 in 10.0 mi Calm Calm - N/A   Clear
10:52 AM 46.9 °F - 14.0 °F 27% 29.75 in 10.0 mi Variable 4.6 mph - N/A   Overcast
11:52 AM 46.0 °F 41.9 °F 17.1 °F 31% 29.76 in 10.0 mi WNW 8.1 mph - N/A   Overcast
12:52 PM 46.0 °F 43.1 °F 21.0 °F 37% 29.76 in 10.0 mi Variable 5.8 mph - N/A   Overcast
1:52 PM 45.0 °F 41.8 °F 19.9 °F 37% 29.75 in 10.0 mi Variable 5.8 mph - N/A   Overcast
2:52 PM 46.9 °F - 21.0 °F 36% 29.74 in 10.0 mi WNW 10.4 mph 18.4 mph N/A   Mostly Cloudy
3:52 PM 44.1 °F 37.7 °F 23.0 °F 43% 29.75 in 10.0 mi WNW 12.7 mph 24.2 mph N/A   Overcast
4:52 PM 44.1 °F 39.0 °F 21.0 °F 40% 29.74 in 10.0 mi West 9.2 mph 21.9 mph N/A   Overcast
5:52 PM 39.0 °F 32.3 °F 26.1 °F 60% 29.77 in 10.0 mi NW 10.4 mph 23.0 mph N/A   Overcast
6:52 PM 37.9 °F 32.1 °F 26.1 °F 62% 29.79 in 10.0 mi NW 8.1 mph - N/A   Overcast
7:02 PM 37.4 °F 32.1 °F 26.6 °F 65% 29.75 in 6.0 mi Variable 6.9 mph - N/A   Haze
7:23 PM 35.6 °F 28.6 °F 28.4 °F 75% 29.76 in 4.0 mi NW 9.2 mph 17.3 mph 0.00 in Snow Light Snow
7:31 PM 33.8 °F 27.0 °F 28.4 °F 81% 29.77 in 2.0 mi NNW 8.1 mph 18.4 mph 0.00 in Snow Light Snow
7:41 PM 33.8 °F 28.6 °F 28.4 °F 81% 29.77 in 6.0 mi NNW 5.8 mph - 0.00 in Snow Light Snow
7:52 PM 34.0 °F 27.2 °F 28.0 °F 79% 29.81 in 10.0 mi NNW 8.1 mph - 0.00 in   Overcast
8:25 PM 33.8 °F 30.8 °F 26.6 °F 75% 29.79 in 10.0 mi Variable 3.5 mph - 0.00 in   Overcast
8:50 PM 33.8 °F 25.8 °F 26.6 °F 75% 29.80 in 1.8 mi NW 10.4 mph 21.9 mph 0.00 in Snow Light Snow
8:52 PM 33.1 °F 26.1 °F 28.0 °F 82% 29.84 in 1.2 mi NW 8.1 mph 21.9 mph 0.00 in Snow Light Snow
8:56 PM 32.0 °F 25.6 °F 28.4 °F 87% 29.81 in 0.8 mi Variable 6.9 mph 21.9 mph 0.00 in Snow Light Snow
9:04 PM 32.0 °F 24.2 °F 28.4 °F 87% 29.81 in 0.5 mi NW 9.2 mph - 0.01 in Fog , Snow Snow
9:10 PM 32.0 °F 25.6 °F 28.4 °F 87% 29.81 in 1.0 mi NNW 6.9 mph - 0.01 in Snow Light Snow
9:12 PM 32.0 °F 24.8 °F 28.4 °F 87% 29.81 in 1.5 mi NNW 8.1 mph - 0.01 in Snow Light Snow
9:14 PM 32.0 °F 27.5 °F 28.4 °F 87% 29.81 in 2.5 mi NW 4.6 mph - 0.01 in Snow Light Snow
9:20 PM 32.0 °F 25.6 °F 26.6 °F 80% 29.81 in 9.0 mi NW 6.9 mph - 0.01 in   Overcast
9:52 PM 32.0 °F 28.7 °F 21.0 °F 64% 29.85 in 10.0 mi WNW 3.5 mph - 0.01 in   Mostly Cloudy
10:30 PM 30.2 °F 20.2 °F 21.2 °F 69% 29.82 in 5.0 mi NNW 12.7 mph 18.4 mph 0.00 in Snow Light Snow
10:52 PM 30.0 °F 19.1 °F 19.9 °F 66% 29.86 in 10.0 mi NNW 15.0 mph 25.3 mph 0.00 in   Overcast
11:52 PM 28.0 °F 17.5 °F 15.1 °F 58% 29.87 in 10.0 mi NNW 12.7 mph 24.2 mph N/A   Overcast